TimeEDT,TemperatureF,Dew PointF,Humidity,Sea Level PressureIn,VisibilityMPH,Wind Direction,Wind SpeedMPH,Gust SpeedMPH,PrecipitationIn,Events,Conditions,WindDirDegrees,DateUTC
12:15 AM,61.7,61.7,100,29.84,10.0,West,3.5,-,N/A,,Scattered Clouds,260,2013-11-02 04:15:00
12:35 AM,61.2,61.2,100,29.84,7.0,WSW,3.5,-,N/A,,Scattered Clouds,250,2013-11-02 04:35:00
12:55 AM,60.6,60.6,100,29.83,5.0,West,3.5,-,N/A,,Scattered Clouds,260,2013-11-02 04:55:00
1:15 AM,60.8,60.8,100,29.83,5.0,West,4.6,-,N/A,,Clear,270,2013-11-02 05:15:00
1:35 AM,60.4,60.4,100,29.84,7.0,West,4.6,-,N/A,,Clear,270,2013-11-02 05:35:00
1:55 AM,59.9,59.9,100,29.84,10.0,West,4.6,-,N/A,,Clear,270,2013-11-02 05:55:00
2:15 AM,59.5,59.5,100,29.84,10.0,West,4.6,-,N/A,,Clear,270,2013-11-02 06:15:00
2:35 AM,59.2,59.2,100,29.84,10.0,West,4.6,-,N/A,,Clear,280,2013-11-02 06:35:00
2:55 AM,58.3,58.1,99,29.85,10.0,West,4.6,-,N/A,,Clear,280,2013-11-02 06:55:00
3:15 AM,57.4,57.0,99,29.85,10.0,WNW,5.8,-,N/A,,Clear,290,2013-11-02 07:15:00
3:35 AM,56.3,56.3,100,29.85,10.0,WNW,6.9,-,N/A,,Clear,290,2013-11-02 07:35:00
3:55 AM,55.8,55.6,99,29.85,10.0,WNW,6.9,-,N/A,,Clear,300,2013-11-02 07:55:00
4:15 AM,55.0,54.9,99,29.85,10.0,WNW,8.1,-,N/A,,Clear,300,2013-11-02 08:15:00
4:35 AM,54.5,54.3,99,29.85,10.0,WNW,6.9,-,N/A,,Clear,300,2013-11-02 08:35:00
4:55 AM,53.8,53.8,100,29.85,10.0,WNW,6.9,-,N/A,,Clear,300,2013-11-02 08:55:00
5:15 AM,53.6,53.6,100,29.85,10.0,NW,5.8,-,N/A,,Clear,310,2013-11-02 09:15:00
5:35 AM,52.7,52.7,100,29.86,10.0,WNW,5.8,-,N/A,,Clear,300,2013-11-02 09:35:00
5:55 AM,51.8,51.8,100,29.86,10.0,WNW,4.6,-,N/A,,Clear,300,2013-11-02 09:55:00
6:15 AM,51.3,51.3,100,29.86,10.0,WNW,4.6,-,N/A,,Clear,300,2013-11-02 10:15:00
6:35 AM,50.7,50.7,100,29.87,10.0,WNW,3.5,-,N/A,,Clear,290,2013-11-02 10:35:00
6:55 AM,50.5,50.5,100,29.88,10.0,WNW,3.5,-,N/A,,Clear,300,2013-11-02 10:55:00
7:15 AM,50.0,50.0,100,29.89,10.0,WNW,3.5,-,N/A,,Clear,290,2013-11-02 11:15:00
7:35 AM,49.6,49.6,100,29.89,10.0,WNW,4.6,-,N/A,,Clear,300,2013-11-02 11:35:00
7:55 AM,50.0,50.0,100,29.90,10.0,WNW,4.6,-,N/A,,Clear,300,2013-11-02 11:55:00
8:15 AM,49.6,49.6,100,29.90,10.0,WNW,4.6,-,N/A,,Clear,300,2013-11-02 12:15:00
8:35 AM,49.5,49.5,100,29.91,10.0,Calm,Calm,-,N/A,,Clear,0,2013-11-02 12:35:00
8:55 AM,51.1,51.1,100,29.91,10.0,West,4.6,-,N/A,,Clear,280,2013-11-02 12:55:00
9:15 AM,53.2,51.8,95,29.92,10.0,WNW,5.8,-,N/A,,Clear,290,2013-11-02 13:15:00
9:35 AM,55.6,53.1,91,29.93,10.0,WNW,4.6,-,N/A,,Clear,290,2013-11-02 13:35:00
9:55 AM,56.3,53.1,89,29.94,10.0,West,3.5,-,N/A,,Clear,270,2013-11-02 13:55:00
10:15 AM,58.3,53.2,83,29.94,10.0,West,3.5,-,N/A,,Clear,270,2013-11-02 14:15:00
10:35 AM,59.9,53.4,79,29.94,10.0,West,5.8,-,N/A,,Clear,270,2013-11-02 14:35:00
10:55 AM,61.7,52.9,73,29.94,10.0,West,6.9,-,N/A,,Clear,280,2013-11-02 14:55:00
11:15 AM,63.5,52.9,68,29.93,10.0,West,4.6,-,N/A,,Clear,270,2013-11-02 15:15:00
11:35 AM,64.9,52.3,64,29.93,10.0,West,4.6,-,N/A,,Clear,270,2013-11-02 15:35:00
11:55 AM,66.4,51.4,59,29.94,10.0,West,6.9,-,N/A,,Clear,280,2013-11-02 15:55:00
1:15 PM,70.0,49.6,48,29.92,10.0,West,5.8,-,N/A,,Clear,280,2013-11-02 17:15:00
1:35 PM,70.5,48.9,46,29.92,10.0,West,8.1,11.5,N/A,,Clear,280,2013-11-02 17:35:00
1:55 PM,70.5,45.9,41,29.91,10.0,West,11.5,19.6,N/A,,Clear,280,2013-11-02 17:55:00
2:15 PM,70.5,46.8,43,29.90,10.0,West,15.0,19.6,N/A,,Clear,280,2013-11-02 18:15:00
2:35 PM,69.4,47.1,45,29.90,10.0,WNW,12.7,-,N/A,,Scattered Clouds,290,2013-11-02 18:35:00
2:55 PM,70.5,48.9,46,29.90,10.0,West,11.5,18.4,N/A,,Scattered Clouds,280,2013-11-02 18:55:00
3:15 PM,69.8,48.6,47,29.89,10.0,West,8.1,-,N/A,,Scattered Clouds,270,2013-11-02 19:15:00
3:35 PM,70.0,49.1,47,29.89,10.0,West,5.8,-,N/A,,Scattered Clouds,270,2013-11-02 19:35:00
3:55 PM,70.0,48.9,47,29.89,10.0,WSW,9.2,-,N/A,,Mostly Cloudy,250,2013-11-02 19:55:00
4:15 PM,67.5,48.7,51,29.89,10.0,West,6.9,-,N/A,,Overcast,270,2013-11-02 20:15:00
4:35 PM,68.9,49.1,49,29.89,10.0,West,4.6,-,N/A,,Scattered Clouds,270,2013-11-02 20:35:00
4:55 PM,68.9,48.6,48,29.90,10.0,West,5.8,-,N/A,,Scattered Clouds,260,2013-11-02 20:55:00
5:15 PM,67.5,47.1,48,29.89,10.0,WNW,8.1,-,N/A,,Scattered Clouds,300,2013-11-02 21:15:00
5:35 PM,67.1,47.8,50,29.90,10.0,West,4.6,-,N/A,,Clear,280,2013-11-02 21:35:00
5:55 PM,66.0,49.5,55,29.91,10.0,West,4.6,-,N/A,,Clear,260,2013-11-02 21:55:00
6:15 PM,64.2,50.9,62,29.91,10.0,North,-9999.0,-,N/A,,Clear,0,2013-11-02 22:15:00
6:35 PM,60.4,51.8,73,29.92,10.0,Calm,Calm,-,N/A,,Clear,0,2013-11-02 22:35:00
6:55 PM,57.9,52.2,81,29.93,10.0,Calm,Calm,-,N/A,,Clear,0,2013-11-02 22:55:00
7:15 PM,55.6,52.3,89,29.94,10.0,Calm,Calm,-,N/A,,Clear,0,2013-11-02 23:15:00
7:35 PM,53.8,52.5,95,29.95,10.0,West,3.5,-,N/A,,Clear,280,2013-11-02 23:35:00
7:55 PM,55.6,51.1,85,29.97,10.0,WNW,4.6,-,N/A,,Clear,290,2013-11-02 23:55:00
8:15 PM,56.3,50.0,79,29.98,10.0,WNW,5.8,-,N/A,,Clear,300,2013-11-03 00:15:00
8:35 PM,55.8,48.9,78,29.99,10.0,WNW,5.8,-,N/A,,Clear,300,2013-11-03 00:35:00
8:55 PM,55.2,48.4,78,30.00,10.0,WNW,4.6,-,N/A,,Clear,300,2013-11-03 00:55:00
9:15 PM,53.8,48.4,82,30.01,10.0,NW,3.5,-,N/A,,Clear,310,2013-11-03 01:15:00
9:35 PM,51.6,48.9,90,30.01,10.0,NW,3.5,-,N/A,,Clear,310,2013-11-03 01:35:00
9:55 PM,50.7,48.2,91,30.03,10.0,NW,3.5,-,N/A,,Clear,310,2013-11-03 01:55:00
10:15 PM,51.1,47.5,87,30.04,10.0,NW,4.6,-,N/A,,Clear,310,2013-11-03 02:15:00
10:35 PM,49.5,47.5,93,30.05,10.0,NW,3.5,-,N/A,,Clear,310,2013-11-03 02:35:00
10:55 PM,49.1,47.3,93,30.05,10.0,Calm,Calm,-,N/A,,Clear,0,2013-11-03 02:55:00
11:15 PM,47.3,47.3,100,30.06,10.0,Calm,Calm,-,N/A,,Clear,0,2013-11-03 03:15:00
11:35 PM,46.6,46.6,100,30.07,10.0,Calm,Calm,-,N/A,,Clear,0,2013-11-03 03:35:00
11:55 PM,45.9,45.9,100,30.07,10.0,Calm,Calm,-,N/A,,Clear,0,2013-11-03 03:55:00